GLD548 SBJD-SBJD

Flight info

Callsign GLD548
Flight time 0h 3m
Altitude 3500
Route TGL
Aircraft C152/M-SDFGIRY/S

Departure

Time 2026-04-28 14:35
Airport Comte. Rolim Adolfo Amaro–Jundiaí State Airport (SBJD)

Arrival

Time 2026-04-28 14:38
Airport Comte. Rolim Adolfo Amaro–Jundiaí State Airport (SBJD)
Time Latitude Longitude Altitude Speed Heading
2026-04-28 14:21 -23.17644 -46.94732 2448 ft 0 kts 295°
2026-04-28 14:24 -23.17640 -46.94736 2464 ft 2 kts 343°
2026-04-28 14:24 -23.17634 -46.94734 2462 ft 0 kts 52°
2026-04-28 14:24 -23.17621 -46.94715 2453 ft 4 kts 38°
2026-04-28 14:25 -23.17575 -46.94726 2448 ft 10 kts 349°
2026-04-28 14:25 -23.17537 -46.94720 2448 ft 0 kts 27°
2026-04-28 14:27 -23.17538 -46.94720 2448 ft 0 kts 27°
2026-04-28 14:30 -23.17536 -46.94719 2448 ft 2 kts 27°
2026-04-28 14:30 -23.17511 -46.94689 2448 ft 7 kts 64°
2026-04-28 14:30 -23.17529 -46.94649 2458 ft 7 kts 147°
2026-04-28 14:31 -23.17550 -46.94639 2450 ft 0 kts 156°
2026-04-28 14:32 -23.17549 -46.94639 2450 ft 0 kts 156°
2026-04-28 14:32 -23.17644 -46.94595 2453 ft 38 kts 153°
2026-04-28 14:32 -23.17996 -46.94418 2479 ft 66 kts 143°
2026-04-28 14:33 -23.18375 -46.94181 2635 ft 61 kts 145°
2026-04-28 14:33 -23.18759 -46.93929 2649 ft 67 kts 145°
2026-04-28 14:33 -23.19126 -46.93662 2776 ft 57 kts 134°
2026-04-28 14:33 -23.19300 -46.93453 2808 ft 56 kts 118°
2026-04-28 14:34 -23.18965 -46.92809 2905 ft 53 kts
2026-04-28 14:34 -23.18607 -46.92890 2939 ft 55 kts 349°
2026-04-28 14:34 -23.18373 -46.92933 3028 ft 50 kts 351°
2026-04-28 14:35 -23.17838 -46.93029 3114 ft 64 kts 348°
2026-04-28 14:35 -23.17382 -46.93137 3218 ft 68 kts 350°
2026-04-28 14:35 -23.16933 -46.93250 3360 ft 68 kts 347°
2026-04-28 14:35 -23.16450 -46.93429 3439 ft 73 kts 339°
2026-04-28 14:36 -23.15981 -46.93642 3499 ft 76 kts 343°
2026-04-28 14:36 -23.15529 -46.93941 3575 ft 77 kts 315°
2026-04-28 14:36 -23.15237 -46.94465 3587 ft 84 kts 292°
2026-04-28 14:36 -23.15160 -46.95102 3554 ft 88 kts 265°
2026-04-28 14:37 -23.15407 -46.95692 3558 ft 87 kts 223°
2026-04-28 14:37 -23.15972 -46.95851 3433 ft 89 kts 159°
2026-04-28 14:37 -23.16490 -46.95466 3118 ft 93 kts 134°
2026-04-28 14:37 -23.16962 -46.94997 2790 ft 88 kts 137°
2026-04-28 14:38 -23.17477 -46.94667 2495 ft 84 kts 155°
2026-04-28 14:38 -23.17928 -46.94460 2465 ft 54 kts 166°
2026-04-28 14:38 -23.18089 -46.94387 2471 ft 6 kts 125°
2026-04-28 14:38 -23.18091 -46.94359 2472 ft 2 kts 63°
2026-04-28 14:39 -23.18073 -46.94322 2473 ft 8 kts 71°
2026-04-28 14:39 -23.18052 -46.94279 2472 ft 6 kts 64°
2026-04-28 14:39 -23.18042 -46.94243 2475 ft 0 kts 63°
2026-04-28 15:00 -23.18042 -46.94244 2479 ft 0 kts 63°
2026-04-28 15:01 -23.18043 -46.94244 2479 ft 0 kts 63°
2026-04-28 15:20 -23.18042 -46.94240 2479 ft 3 kts 91°
2026-04-28 15:21 -23.18066 -46.94258 2466 ft 6 kts 243°
2026-04-28 15:21 -23.18105 -46.94281 2469 ft 9 kts 166°
2026-04-28 15:21 -23.18171 -46.94248 2472 ft 12 kts 154°
2026-04-28 15:21 -23.18246 -46.94214 2475 ft 12 kts 159°
2026-04-28 15:22 -23.18329 -46.94175 2479 ft 12 kts 156°
2026-04-28 15:22 -23.18367 -46.94168 2481 ft 5 kts 216°
2026-04-28 15:22 -23.18395 -46.94149 2482 ft 7 kts 144°
2026-04-28 15:22 -23.18450 -46.94119 2484 ft 11 kts 156°
2026-04-28 15:23 -23.18527 -46.94085 2487 ft 10 kts 155°
2026-04-28 15:23 -23.18542 -46.94077 2488 ft 0 kts 158°
2026-04-28 15:23 -23.18547 -46.94075 2488 ft 5 kts 159°
2026-04-28 15:23 -23.18604 -46.94067 2490 ft 9 kts 197°
2026-04-28 15:24 -23.18639 -46.94103 2490 ft 9 kts 249°